Weather History for Fort Lauderdale, FL

Change the Weather History Date:

Sunday, August 18, 2013

  Actual Average Record
Temperature  
Mean Temperature 86 °F -  
Max Temperature 91 °F 92 °F 96 °F (1975)
Min Temperature 81 °F 75 °F 63 °F (1976)
Cooling Degree Days 21    
Growing Degree Days 36 (Base 50)    
Moisture  
Dew Point 75 °F    
Average Humidity 70    
Maximum Humidity 82    
Minimum Humidity 59    
Precipitation  
Precipitation 0.09 in - - ()
Sea Level Pressure  
Sea Level Pressure 30.05 in    
Wind  
Wind Speed 12 mph (ESE)    
Max Wind Speed 25 mph    
Max Gust Speed 32 mph    
Visibility 10 miles    
Events Rain    
Averages and records for this station are not official NWS values.
T = Trace of Precipitation, MM = Missing Value Source: NWS Daily Summary

Daily Weather History Graph

Daily Weather History Graph

Search for Another Location

Airport:

Trip Planner

Search our weather history database for the weather conditions in past years. The results will help you decide how hot, cold, wet, or windy it might be!

Date:

Astronomy

Aug. 18, 2013 Rise Set
Actual Time 6:54 AM EDT 7:53 PM EDT
Civil Twilight 6:30 AM EDT 8:17 PM EDT
Nautical Twilight 6:02 AM EDT 8:46 PM EDT
Astronomical Twilight 5:33 AM EDT 9:15 PM EDT
Moon 5:53 PM EDT (8/18) 4:10 AM EDT (8/18)
Length of Visible Light 13h 47m
Length of Day
12h 59m
Waxing Gibbous, 92% of the Moon is Illuminated
Aug 18
Waxing Gibbous
Aug 20
Full
Aug 28
Last Quarter
Sep 5
New
Sep 12
First Quarter

Hourly Weather History & Observations

Time (EDT) Temp. Heat Index Dew Point Humidity Pressure Visibility Wind Dir Wind Speed Gust Speed Precip Events Conditions
12:53 AM 82.9 °F 88.8 °F 73.0 °F 72% 30.07 in 10.0 mi East 9.2 mph - N/A   Clear
1:53 AM 82.9 °F 90.2 °F 75.0 °F 77% 30.06 in 10.0 mi ESE 12.7 mph - N/A   Partly Cloudy
2:53 AM 82.9 °F 90.2 °F 75.0 °F 77% 30.05 in 10.0 mi East 9.2 mph - N/A   Scattered Clouds
3:53 AM 82.9 °F 90.8 °F 75.9 °F 79% 30.03 in 10.0 mi East 9.2 mph - N/A   Clear
4:53 AM 82.9 °F 89.4 °F 73.9 °F 74% 30.03 in 10.0 mi East 9.2 mph - N/A   Partly Cloudy
5:53 AM 82.9 °F 89.4 °F 73.9 °F 74% 30.03 in 10.0 mi East 9.2 mph - N/A   Clear
6:53 AM 82.9 °F 89.4 °F 73.9 °F 74% 30.03 in 10.0 mi East 13.8 mph - N/A   Scattered Clouds
7:53 AM 84.0 °F 91.2 °F 73.9 °F 72% 30.05 in 10.0 mi East 12.7 mph - N/A   Scattered Clouds
8:53 AM 84.9 °F 92.1 °F 73.9 °F 69% 30.06 in 10.0 mi East 12.7 mph - N/A   Scattered Clouds
9:53 AM 88.0 °F 97.5 °F 75.0 °F 65% 30.08 in 10.0 mi ESE 16.1 mph - N/A   Scattered Clouds
10:53 AM 89.1 °F 99.1 °F 75.0 °F 63% 30.09 in 10.0 mi ESE 15.0 mph - N/A   Scattered Clouds
11:08 AM 89.6 °F 99.8 °F 75.2 °F 62% 30.08 in 10.0 mi East 18.4 mph - N/A   Mostly Cloudy
11:35 AM 89.6 °F 99.8 °F 75.2 °F 62% 30.08 in 10.0 mi East 15.0 mph 21.9 mph 0.00 in   Scattered Clouds
11:53 AM 90.0 °F 100.2 °F 75.0 °F 61% 30.09 in 10.0 mi East 13.8 mph 23.0 mph 0.00 in   Scattered Clouds
12:53 PM 90.0 °F 100.2 °F 75.0 °F 61% 30.08 in 10.0 mi ESE 17.3 mph - N/A   Scattered Clouds
1:53 PM 91.0 °F 101.6 °F 75.0 °F 59% 30.06 in 10.0 mi East 17.3 mph 24.2 mph N/A   Scattered Clouds
2:21 PM 87.8 °F 97.6 °F 75.2 °F 66% 30.05 in 10.0 mi SE 12.7 mph - N/A   Mostly Cloudy
2:34 PM 89.6 °F 99.8 °F 75.2 °F 62% 30.05 in 10.0 mi ESE 25.3 mph 32.2 mph N/A   Mostly Cloudy
2:53 PM 81.0 °F 86.7 °F 75.0 °F 82% 30.06 in 10.0 mi East 11.5 mph 23.0 mph 0.09 in Rain Light Rain
3:53 PM 87.1 °F 96.3 °F 75.0 °F 67% 30.03 in 10.0 mi East 16.1 mph 20.7 mph 0.00 in   Scattered Clouds
4:53 PM 88.0 °F 98.5 °F 75.9 °F 67% 30.02 in 10.0 mi East 15.0 mph 23.0 mph N/A   Scattered Clouds
5:53 PM 87.1 °F 96.3 °F 75.0 °F 67% 30.01 in 10.0 mi ESE 17.3 mph - N/A   Partly Cloudy
6:53 PM 87.1 °F 96.3 °F 75.0 °F 67% 30.02 in 10.0 mi ESE 11.5 mph 20.7 mph N/A   Scattered Clouds
7:53 PM 84.9 °F 94.1 °F 75.9 °F 74% 30.03 in 10.0 mi East 9.2 mph - N/A   Partly Cloudy
8:53 PM 84.0 °F 92.6 °F 75.9 °F 76% 30.05 in 10.0 mi East 9.2 mph - N/A   Scattered Clouds
9:53 PM 84.9 °F 94.1 °F 75.9 °F 74% 30.07 in 10.0 mi East 11.5 mph - N/A   Scattered Clouds
10:53 PM 84.0 °F 92.6 °F 75.9 °F 76% 30.08 in 10.0 mi East 10.4 mph - N/A   Scattered Clouds
11:53 PM 84.0 °F 93.7 °F 77.0 °F 79% 30.09 in 10.0 mi South 9.2 mph - N/A   Mostly Cloudy